Location: Zapote
(9.9191°N, 84.0597°W)
Time: 17:38:19
(UTC-06:00)

Transit 2A - Pass Details

Date: 02 March 2021
Orbit: 602 x 957 km, 66.7° (Epoch: 16 April)

Event Time Altitude Azimuth Distance (km) Brightness Sun altitude
Rises 17:21:11 0° 210° (SSW) 3,554 10.0 5.4°
Reaches altitude 10° 17:23:51 10° 214° (SW) 2,574 9.4 4.8°
Maximum altitude 17:29:39 53° 290° (WNW) 1,033 7.3 3.4°
Drops below altitude 10° 17:34:58 10° 7° (N) 2,352 8.4 2.1°
Sets 17:37:19 0° 12° (NNE) 3,223 9.0 1.5°
